Torna al catalogo

MARECS B2

AttivoComunicazioniMEO
NORAD 15386·PAYLOAD·🇪🇺 EU

Lanciato Nov 10, 1984 da Guiana Space Centre

Loading…

Prossimi Passaggi (prossime 24 ore)

TLE

AggiornatoSource: Space-Track

Epoca: Sep 14, 2026, 00:02 UTC

1 15386U 84114B   26257.00190309 -.00000250  00000-0  00000-0 0  9993
2 15386  13.3868 332.3483 0109930  57.0908 310.4776  0.95929924113531

Traccia MARECS B2 in tempo reale con AllMySat

Download on the App Store